RYR24K EPMO-EPKK

Flight info

Callsign RYR24K
Flight time 0h 34m
Altitude 36000
Route EVINA M66 KUKAM
Aircraft B738/M-SDE2E3FGHIRWXY/LB1

Departure

Time 2026-05-08 18:49
Airport Warsaw Modlin Airport (EPMO)

Arrival

Time 2026-05-08 19:23
Airport Kraków John Paul II International Airport (EPKK)
Time Latitude Longitude Altitude Speed Heading
2026-05-08 18:18 52.44744 20.65258 359 ft 0 kts 204°
2026-05-08 18:40 52.44758 20.65268 357 ft 2 kts 202°
2026-05-08 18:40 52.44774 20.65278 353 ft 2 kts 182°
2026-05-08 18:40 52.44788 20.65267 356 ft 2 kts 127°
2026-05-08 18:40 52.44792 20.65242 357 ft 2 kts 77°
2026-05-08 18:41 52.44787 20.65215 354 ft 2 kts 73°
2026-05-08 18:41 52.44785 20.65203 356 ft 0 kts 77°
2026-05-08 18:44 52.44787 20.65214 354 ft 3 kts 79°
2026-05-08 18:44 52.44796 20.65306 357 ft 13 kts 81°
2026-05-08 18:44 52.44814 20.65510 349 ft 22 kts 81°
2026-05-08 18:44 52.44839 20.65780 351 ft 25 kts 82°
2026-05-08 18:45 52.44863 20.66049 349 ft 23 kts 81°
2026-05-08 18:45 52.44887 20.66307 349 ft 24 kts 81°
2026-05-08 18:45 52.44914 20.66597 349 ft 27 kts 81°
2026-05-08 18:45 52.44932 20.66784 349 ft 23 kts 81°
2026-05-08 18:46 52.44958 20.67021 357 ft 18 kts 66°
2026-05-08 18:46 52.45018 20.67077 351 ft 8 kts 356°
2026-05-08 18:46 52.45117 20.67051 354 ft 16 kts 351°
2026-05-08 18:46 52.45196 20.67027 354 ft 19 kts 345°
2026-05-08 18:47 52.45282 20.66950 349 ft 9 kts 292°
2026-05-08 18:47 52.45281 20.66877 354 ft 0 kts 261°
2026-05-08 18:48 52.45279 20.66850 354 ft 7 kts 261°
2026-05-08 18:48 52.45217 20.66196 347 ft 122 kts 261°
2026-05-08 18:49 52.45060 20.64444 1206 ft 166 kts 263°
2026-05-08 18:49 52.44870 20.62484 2864 ft 177 kts 262°
2026-05-08 18:49 52.44651 20.60388 3985 ft 202 kts 260°
2026-05-08 18:49 52.43955 20.58156 4025 ft 236 kts 224°
2026-05-08 18:50 52.42449 20.57067 4384 ft 244 kts 189°
2026-05-08 18:50 52.40752 20.56804 5558 ft 246 kts 186°
2026-05-08 18:50 52.39036 20.56559 6846 ft 249 kts 187°
2026-05-08 18:50 52.37298 20.56290 8109 ft 252 kts 188°
2026-05-08 18:51 52.35535 20.55994 9343 ft 257 kts 188°
2026-05-08 18:51 52.33730 20.55669 10515 ft 263 kts 189°
2026-05-08 18:51 52.31899 20.55324 11662 ft 267 kts 189°
2026-05-08 18:51 52.30043 20.54961 12832 ft 271 kts 190°
2026-05-08 18:52 52.28151 20.54581 13987 ft 276 kts 191°
2026-05-08 18:52 52.26232 20.54189 15020 ft 280 kts 191°
2026-05-08 18:52 52.24282 20.53786 16080 ft 284 kts 191°
2026-05-08 18:52 52.22304 20.53374 17131 ft 289 kts 192°
2026-05-08 18:53 52.20300 20.52953 18184 ft 293 kts 192°
2026-05-08 18:53 52.18259 20.52524 19125 ft 298 kts 192°
2026-05-08 18:53 52.16187 20.52087 20058 ft 302 kts 192°
2026-05-08 18:53 52.14089 20.51645 20995 ft 306 kts 192°
2026-05-08 18:54 52.11964 20.51197 21909 ft 310 kts 192°
2026-05-08 18:54 52.09811 20.50742 22826 ft 315 kts 192°
2026-05-08 18:54 52.07625 20.50281 23722 ft 319 kts 192°
2026-05-08 18:54 52.05407 20.49814 24444 ft 325 kts 192°
2026-05-08 18:55 52.00605 20.48786 24799 ft 371 kts 192°
2026-05-08 18:55 51.97972 20.48226 24947 ft 392 kts 192°
2026-05-08 18:55 51.95198 20.47641 25065 ft 411 kts 191°
2026-05-08 18:56 51.92306 20.47038 25300 ft 425 kts 191°
2026-05-08 18:56 51.89347 20.46426 25798 ft 430 kts 191°
2026-05-08 18:56 51.86374 20.45814 26451 ft 431 kts 191°
2026-05-08 18:56 51.83413 20.45205 27230 ft 428 kts 192°
2026-05-08 18:57 51.80462 20.44598 28076 ft 425 kts 192°
2026-05-08 18:57 51.78517 20.44196 28648 ft 422 kts 192°
2026-05-08 18:57 51.74639 20.43393 29774 ft 419 kts 192°
2026-05-08 18:57 51.71751 20.42794 30477 ft 418 kts 192°
2026-05-08 18:58 51.68866 20.42194 31079 ft 417 kts 192°
2026-05-08 18:58 51.65992 20.41597 31689 ft 416 kts 192°
2026-05-08 18:58 51.63119 20.41003 32326 ft 415 kts 192°
2026-05-08 18:58 51.60259 20.40412 32948 ft 414 kts 192°
2026-05-08 18:59 51.57404 20.39823 33549 ft 413 kts 192°
2026-05-08 18:59 51.54556 20.39236 34145 ft 411 kts 192°
2026-05-08 18:59 51.51710 20.38649 34327 ft 417 kts 192°
2026-05-08 19:00 51.45850 20.37449 34249 ft 429 kts 192°
2026-05-08 19:00 51.39973 20.36241 33975 ft 419 kts 193°
2026-05-08 19:00 51.37137 20.35282 32971 ft 417 kts 201°
2026-05-08 19:01 51.34351 20.33858 31725 ft 425 kts 203°
2026-05-08 19:01 51.31511 20.32333 30453 ft 435 kts 203°
2026-05-08 19:01 51.28621 20.30774 29060 ft 441 kts 203°
2026-05-08 19:01 51.25698 20.29215 27711 ft 445 kts 202°
2026-05-08 19:02 51.22749 20.27665 26589 ft 445 kts 202°
2026-05-08 19:02 51.19824 20.26147 26362 ft 446 kts 201°
2026-05-08 19:02 51.16828 20.24594 26250 ft 459 kts 201°
2026-05-08 19:02 51.13771 20.23015 26158 ft 465 kts 201°
2026-05-08 19:03 51.10689 20.21430 26139 ft 465 kts 201°
2026-05-08 19:03 51.07610 20.19852 26126 ft 463 kts 201°
2026-05-08 19:03 51.04542 20.18279 26124 ft 463 kts 201°
2026-05-08 19:03 51.01477 20.16707 26132 ft 463 kts 201°
2026-05-08 19:04 50.98417 20.15139 26132 ft 462 kts 201°
2026-05-08 19:04 50.95414 20.13605 25666 ft 444 kts 201°
2026-05-08 19:04 50.92491 20.12114 24642 ft 440 kts 201°
2026-05-08 19:04 50.89581 20.10629 23537 ft 439 kts 201°
2026-05-08 19:05 50.86683 20.09164 22277 ft 437 kts 200°
2026-05-08 19:05 50.83790 20.07707 21106 ft 433 kts 200°
2026-05-08 19:05 50.80926 20.06307 20077 ft 428 kts 197°
2026-05-08 19:05 50.77983 20.05759 19520 ft 427 kts 184°
2026-05-08 19:06 50.75006 20.05679 19376 ft 429 kts 184°
2026-05-08 19:06 50.71932 20.05599 19249 ft 430 kts 184°
2026-05-08 19:06 50.68941 20.05500 19161 ft 430 kts 184°
2026-05-08 19:06 50.65957 20.05379 19147 ft 428 kts 184°
2026-05-08 19:07 50.62981 20.05243 19140 ft 428 kts 185°
2026-05-08 19:07 50.59998 20.05098 19132 ft 427 kts 185°
2026-05-08 19:07 50.57118 20.04961 19112 ft 401 kts 185°
2026-05-08 19:07 50.54415 20.04833 19118 ft 376 kts 185°
2026-05-08 19:08 50.51890 20.04711 19114 ft 351 kts 185°
2026-05-08 19:08 50.49518 20.04596 19116 ft 333 kts 185°
2026-05-08 19:08 50.47266 20.04486 19117 ft 316 kts 185°
2026-05-08 19:08 50.45122 20.04380 19110 ft 301 kts 186°
2026-05-08 19:09 50.43071 20.04264 18977 ft 287 kts 186°
2026-05-08 19:09 50.41100 20.04145 18560 ft 282 kts 186°
2026-05-08 19:09 50.39158 20.04026 17921 ft 277 kts 186°
2026-05-08 19:09 50.37231 20.03908 17105 ft 277 kts 186°
2026-05-08 19:10 50.35931 20.03830 16594 ft 277 kts 186°
2026-05-08 19:10 50.35574 20.03809 16446 ft 276 kts 186°
2026-05-08 19:10 50.33664 20.03697 15740 ft 274 kts 186°
2026-05-08 19:10 50.31772 20.03587 15064 ft 270 kts 186°
2026-05-08 19:11 50.29896 20.03478 14397 ft 268 kts 186°
2026-05-08 19:11 50.28034 20.03683 13692 ft 270 kts 174°
2026-05-08 19:11 50.26207 20.04287 13035 ft 266 kts 172°
2026-05-08 19:11 50.24426 20.04923 12392 ft 259 kts 171°
2026-05-08 19:12 50.22771 20.06060 11627 ft 266 kts 147°
2026-05-08 19:12 50.21615 20.08306 10929 ft 271 kts 117°
2026-05-08 19:12 50.21297 20.11197 10247 ft 274 kts 88°
2026-05-08 19:12 50.21620 20.14105 9526 ft 272 kts 79°
2026-05-08 19:13 50.22030 20.16981 8814 ft 267 kts 78°
2026-05-08 19:13 50.22433 20.19777 8158 ft 261 kts 78°
2026-05-08 19:13 50.22820 20.22527 7492 ft 257 kts 78°
2026-05-08 19:13 50.23193 20.25243 6869 ft 255 kts 78°
2026-05-08 19:14 50.23424 20.27977 6389 ft 253 kts 96°
2026-05-08 19:14 50.22837 20.30516 6054 ft 244 kts 128°
2026-05-08 19:14 50.21577 20.32230 6016 ft 245 kts 154°
2026-05-08 19:14 50.19993 20.33093 5998 ft 238 kts 168°
2026-05-08 19:15 50.18386 20.33629 5761 ft 233 kts 172°
2026-05-08 19:15 50.16811 20.33424 5267 ft 231 kts 207°
2026-05-08 19:15 50.15705 20.31686 5121 ft 231 kts 245°
2026-05-08 19:15 50.15132 20.29335 5051 ft 228 kts 252°
2026-05-08 19:16 50.14690 20.27023 5007 ft 217 kts 255°
2026-05-08 19:16 50.14331 20.24774 4999 ft 211 kts 257°
2026-05-08 19:16 50.14005 20.22574 5003 ft 207 kts 257°
2026-05-08 19:16 50.13686 20.20370 5008 ft 209 kts 257°
2026-05-08 19:17 50.13472 20.18875 5018 ft 210 kts 257°
2026-05-08 19:17 50.13044 20.15877 5023 ft 212 kts 258°
2026-05-08 19:17 50.12831 20.14381 5021 ft 213 kts 257°
2026-05-08 19:17 50.12508 20.12114 4894 ft 216 kts 258°
2026-05-08 19:18 50.12182 20.09821 4620 ft 216 kts 258°
2026-05-08 19:18 50.11861 20.07566 4348 ft 210 kts 258°
2026-05-08 19:18 50.11555 20.05409 4067 ft 196 kts 258°
2026-05-08 19:18 50.11273 20.03417 3812 ft 181 kts 258°
2026-05-08 19:19 50.11010 20.01563 3584 ft 170 kts 258°
2026-05-08 19:19 50.10766 19.99836 3380 ft 157 kts 258°
2026-05-08 19:19 50.10538 19.98221 3163 ft 148 kts 259°
2026-05-08 19:19 50.10329 19.96740 2991 ft 133 kts 259°
2026-05-08 19:20 50.10141 19.95408 2832 ft 124 kts 259°
2026-05-08 19:20 50.10021 19.94551 2720 ft 121 kts 259°
2026-05-08 19:20 50.09782 19.92851 2511 ft 120 kts 259°
2026-05-08 19:20 50.09603 19.91573 2353 ft 121 kts 259°
2026-05-08 19:21 50.09423 19.90291 2189 ft 120 kts 259°
2026-05-08 19:21 50.09245 19.89024 2026 ft 120 kts 259°
2026-05-08 19:21 50.09068 19.87761 1869 ft 119 kts 259°
2026-05-08 19:21 50.08891 19.86500 1726 ft 118 kts 259°
2026-05-08 19:22 50.08714 19.85246 1548 ft 119 kts 258°
2026-05-08 19:22 50.08540 19.83996 1382 ft 117 kts 259°
2026-05-08 19:22 50.08368 19.82762 1244 ft 117 kts 258°
2026-05-08 19:22 50.08194 19.81521 1060 ft 117 kts 258°
2026-05-08 19:23 50.08035 19.80330 884 ft 116 kts 259°
2026-05-08 19:23 50.07869 19.79128 795 ft 108 kts 259°
2026-05-08 19:23 50.07730 19.78157 789 ft 72 kts 257°
2026-05-08 19:23 50.07659 19.77643 790 ft 47 kts 258°
2026-05-08 19:24 50.07593 19.77173 795 ft 41 kts 258°
2026-05-08 19:24 50.07521 19.76859 797 ft 22 kts 210°
2026-05-08 19:24 50.07393 19.76877 791 ft 20 kts 167°